[[{"header":{"parameterUnit":"m.s-1","parameterCategory":1,"la1":30.2991,"la2":30.254,"lo1":-89.0895,"lo2":-89.0444,"dy":0.0017,"dx":0.0017,"nx":28,"ny":28,"refTime":"2024-06-12T03:00:00:Z","depth":0,"parameterNumber":2,"parameterNumberName":"U-component_of_WINDS"},"data":[0,0,0,0,0,0,0,0,0,0,0,0,0,0,0,0,0,0,0,0,0,0,0,0,0,0,0,0,0,0,0,0,0,0,0,0,0,0,0,0,0,0,0,0,0,0,0,0,0,0,0,0,0,0,0,0,0,0,-0.4377,-0.4377,0,-0.4321,-0.432,-0.4319,-0.4272,-0.4271,-0.427,-0.427,-0.4212,-0.4211,-0.421,0,0,0,0,0,0,0,0,0,0,0,0,0,-0.4443,-0.4442,-0.4377,-0.4377,-0.4376,-0.4321,-0.432,-0.4319,-0.4272,-0.4271,-0.427,-0.427,-0.4212,-0.4211,-0.421,0,0,0,0,0,0,0,0,0,0,0,0,0,-0.4403,-0.4441,-0.4377,-0.4346,-0.4342,-0.4321,-0.432,-0.4319,-0.4272,-0.4271,-0.427,-0.4269,-0.4212,-0.4211,-0.4209,-0.4215,0,0,-0.4204,-0.4204,0,0,0,0,0,0,0,0,-0.4405,-0.4401,-0.4351,-0.4348,-0.4344,-0.4302,-0.4322,-0.4284,-0.4272,-0.4298,-0.427,-0.4269,-0.4243,-0.4238,-0.423,-0.4213,-0.421,-0.4204,-0.4203,-0.4203,-0.4202,0,0,0,0,0,0,0,-0.4408,-0.4403,-0.4355,-0.435,-0.4346,-0.4334,-0.4327,-0.4314,-0.4276,-0.4296,-0.4292,-0.4286,-0.424,-0.4231,-0.4228,-0.4209,-0.4204,-0.4203,-0.4202,-0.4201,-0.4194,-0.4194,0,0,0,0,0,0,-0.4416,-0.4406,-0.4357,-0.4353,-0.4373,-0.4333,-0.4326,-0.4316,-0.4276,-0.4269,-0.4287,-0.4284,-0.4234,-0.423,-0.4226,-0.423,-0.4203,-0.4201,-0.42,-0.4193,-0.4194,-0.4195,0,0,0,0,0,0,-0.4418,-0.4412,-0.4359,-0.4378,-0.4371,-0.4333,-0.4323,-0.4316,-0.4307,-0.4269,-0.4262,-0.4285,-0.4233,-0.4228,-0.4218,-0.4227,-0.4201,-0.4199,-0.4192,-0.4193,-0.4194,-0.4239,0,0,0,0,0,0,-0.442,-0.4413,-0.4415,-0.4379,-0.437,-0.4353,-0.4323,-0.4315,-0.4304,-0.43,-0.4265,-0.4258,-0.4232,-0.4221,-0.4217,-0.4225,-0.4198,-0.4191,-0.4192,-0.4194,-0.4236,-0.4241,-0.4246,0,0,0,0,0,-0.4422,-0.443,-0.4416,-0.441,-0.4372,-0.4354,-0.4349,-0.4319,-0.4305,-0.4307,-0.4282,-0.4259,-0.4227,-0.422,-0.4215,-0.4223,-0.419,-0.4192,-0.4194,-0.4234,-0.424,-0.4245,0,0,0,0,0,0,-0.4469,-0.4425,-0.4408,-0.4405,-0.4383,-0.4346,-0.4347,-0.4326,-0.4308,-0.4305,-0.4268,-0.4261,-0.4255,-0.4238,-0.4231,-0.4226,-0.4205,-0.4206,-0.4238,-0.4243,-0.4248,-0.4253,-0.4196,0,0,0,0,0,-0.4479,-0.4468,-0.443,-0.443,-0.4421,-0.4386,-0.4377,-0.4355,-0.4332,-0.4323,-0.4297,-0.4275,-0.4259,-0.425,-0.4234,-0.4233,-0.4225,-0.4235,-0.424,-0.4244,-0.4246,-0.4243,-0.4248,-0.42,-0.42,-0.42,0,0,-0.45,-0.4474,-0.447,-0.4439,-0.442,-0.441,-0.4379,-0.4369,-0.436,-0.4321,-0.4311,-0.4291,-0.4263,-0.4258,-0.4255,-0.4243,-0.4257,-0.4246,-0.425,-0.4249,-0.4246,-0.425,-0.4254,-0.4201,-0.4201,-0.4201,0,0,-0.4532,-0.4511,-0.4509,-0.4491,-0.4462,-0.4439,-0.4438,-0.4403,-0.4389,-0.4378,-0.4348,-0.4337,-0.4311,-0.4292,-0.428,-0.4303,-0.4281,-0.4299,-0.4323,-0.4322,-0.4325,-0.4329,-0.4337,-0.4341,-0.43,-0.43,-0.43,0,-0.4561,-0.4544,-0.4511,-0.4503,-0.4491,-0.4454,-0.4451,-0.4434,-0.4402,-0.4394,-0.4382,-0.4348,-0.4327,-0.4317,-0.4322,-0.4313,-0.4311,-0.4303,-0.4328,-0.433,-0.4333,-0.4341,-0.4344,-0.4302,-0.4302,-0.4302,-0.4302,0,-0.4582,-0.457,-0.4572,-0.4542,-0.4529,-0.4524,-0.449,-0.4481,-0.446,-0.4438,-0.4426,-0.4399,-0.4377,-0.4372,-0.4352,-0.4359,-0.4353,-0.4334,-0.4313,-0.434,-0.4347,-0.435,-0.4306,-0.4305,-0.4304,-0.4304,0,0,-0.4644,-0.4594,-0.4596,-0.4581,-0.4546,-0.4536,-0.4529,-0.4507,-0.45,-0.4478,-0.4471,-0.4449,-0.4431,-0.4417,-0.4394,-0.4392,-0.4413,-0.4374,-0.4373,-0.4383,-0.4419,-0.4434,-0.4439,-0.4398,-0.4398,-0.4398,-0.4422,0,-0.4671,-0.4657,-0.4626,-0.4621,-0.461,-0.4574,-0.4567,-0.4545,-0.4523,-0.451,-0.4486,-0.4471,-0.4449,-0.444,-0.4437,-0.4411,-0.442,-0.4409,-0.4391,-0.4391,-0.4401,-0.4442,-0.4458,-0.4482,-0.4424,-0.4425,-0.4425,0,-0.4702,-0.4683,-0.4677,-0.4641,-0.4635,-0.463,-0.4607,-0.4595,-0.4568,-0.4552,-0.4536,-0.451,-0.4499,-0.4479,-0.4464,-0.4457,-0.4447,-0.4434,-0.4434,-0.4432,-0.4411,-0.4443,-0.4489,-0.4493,-0.4429,-0.4428,-0.4428,0,-0.4749,-0.4721,-0.4714,-0.4702,-0.4661,-0.4658,-0.464,-0.4613,-0.4601,-0.458,-0.4572,-0.4551,-0.4539,-0.4522,-0.4491,-0.4479,-0.448,-0.4457,-0.4467,-0.4468,-0.447,-0.4471,-0.4516,-0.4462,-0.4462,-0.4461,-0.4461,0,-0.4784,-0.4782,-0.4734,-0.473,-0.4726,-0.469,-0.4687,-0.4666,-0.4642,-0.4632,-0.4599,-0.459,-0.4549,-0.4536,-0.4511,-0.4502,-0.4497,-0.4484,-0.4478,-0.4488,-0.449,-0.4483,-0.4481,-0.4462,-0.4462,-0.4462,-0.4462,0,-0.4838,-0.4805,-0.4795,-0.4756,-0.4746,-0.4745,-0.4712,-0.4706,-0.4681,-0.467,-0.4665,-0.4627,-0.4609,-0.4576,-0.4549,-0.4532,-0.4529,-0.4517,-0.4539,-0.4535,-0.4547,-0.4547,-0.4591,-0.4595,-0.4537,-0.4538,-0.4538,0,-0.4863,-0.486,-0.4821,-0.4812,-0.4796,-0.4782,-0.477,-0.4733,-0.4722,-0.469,-0.4688,-0.4668,-0.465,-0.4623,-0.4593,-0.4572,-0.456,-0.4577,-0.4557,-0.4567,-0.4562,-0.4563,-0.4563,-0.4582,-0.4583,-0.4584,-0.4584,0,-0.4911,-0.4895,-0.4879,-0.4857,-0.4843,-0.4824,-0.4803,-0.4798,-0.4756,-0.4745,-0.4726,-0.4712,-0.4684,-0.4665,-0.4639,-0.462,-0.4596,-0.459,-0.4592,-0.4603,-0.4616,-0.461,-0.4552,-0.459,-0.4589,-0.4589,-0.4589,-0.4589,-0.4952,-0.4948,-0.4919,-0.4902,-0.4882,-0.4863,-0.4856,-0.483,-0.4814,-0.4789,-0.4768,-0.4751,-0.4723,-0.4686,-0.4668,-0.4654,-0.4642,-0.4644,-0.4645,-0.4646,-0.4651,-0.4617,-0.4649,-0.4649,-0.4649,-0.4648,-0.4648,0,-0.5,-0.4979,-0.4963,-0.4935,-0.4921,-0.4898,-0.4873,-0.4863,-0.4849,-0.4825,-0.4808,-0.4786,-0.4767,-0.4734,-0.4711,-0.4707,-0.4695,-0.4702,-0.4703,-0.4699,-0.4662,-0.4664,-0.4712,-0.4712,-0.4712,-0.4712,-0.4712,-0.4712,-0.5023,-0.5015,-0.4995,-0.4977,-0.4956,-0.494,-0.4928,-0.4909,-0.489,-0.4867,-0.4851,-0.483,-0.4802,-0.4776,-0.4757,-0.4748,-0.4742,-0.4753,-0.474,-0.4707,-0.4701,-0.4696,-0.4697,-0.4752,-0.4752,-0.4778,-0.4778,-0.4779]},{"header":{"parameterUnit":"m.s-1","parameterCategory":1,"la1":30.2991,"la2":30.254,"lo1":-89.0895,"lo2":-89.0444,"dy":0.0017,"dx":0.0017,"nx":28,"ny":28,"refTime":"2024-06-12T03:00:00:Z","depth":0,"parameterNumber":3,"parameterNumberName":"V-component_of_WINDS"},"data":[0,0,0,0,0,0,0,0,0,0,0,0,0,0,0,0,0,0,0,0,0,0,0,0,0,0,0,0,0,0,0,0,0,0,0,0,0,0,0,0,0,0,0,0,0,0,0,0,0,0,0,0,0,0,0,0,0,0,-3.2434,-3.2435,0,-3.2526,-3.2527,-3.2528,-3.2531,-3.253,-3.2529,-3.2528,-3.2618,-3.2622,-3.2625,0,0,0,0,0,0,0,0,0,0,0,0,0,-3.2258,-3.2261,-3.2434,-3.2435,-3.2436,-3.2526,-3.2527,-3.2528,-3.2531,-3.253,-3.2528,-3.2527,-3.2617,-3.2621,-3.2625,0,0,0,0,0,0,0,0,0,0,0,0,0,-3.2341,-3.2263,-3.2434,-3.2449,-3.2451,-3.2525,-3.2527,-3.2528,-3.2531,-3.253,-3.2528,-3.2527,-3.2616,-3.2621,-3.2626,-3.2691,0,0,-3.2642,-3.2644,0,0,0,0,0,0,0,0,-3.2336,-3.2347,-3.2445,-3.2448,-3.245,-3.2515,-3.2498,-3.2583,-3.2532,-3.2501,-3.2528,-3.2526,-3.2585,-3.2593,-3.2613,-3.2695,-3.2699,-3.2642,-3.2645,-3.2648,-3.2649,0,0,0,0,0,0,0,-3.233,-3.2343,-3.247,-3.2447,-3.245,-3.245,-3.246,-3.2514,-3.2551,-3.2503,-3.2504,-3.2515,-3.2586,-3.2609,-3.2616,-3.27,-3.2642,-3.2647,-3.265,-3.2652,-3.2841,-3.2843,0,0,0,0,0,0,-3.2322,-3.2338,-3.2467,-3.2473,-3.2388,-3.2454,-3.2465,-3.2496,-3.255,-3.2557,-3.2516,-3.2515,-3.2601,-3.261,-3.2619,-3.27,-3.2647,-3.2652,-3.2655,-3.2839,-3.2842,-3.2844,0,0,0,0,0,0,-3.2318,-3.2334,-3.2463,-3.2406,-3.2422,-3.2459,-3.2494,-3.2499,-3.2521,-3.256,-3.2566,-3.2532,-3.26,-3.2612,-3.2674,-3.2703,-3.2655,-3.2659,-3.2837,-3.284,-3.2843,-3.2861,0,0,0,0,0,0,-3.2313,-3.2332,-3.2358,-3.2406,-3.2426,-3.2518,-3.2495,-3.2502,-3.253,-3.2529,-3.2577,-3.2583,-3.2599,-3.2666,-3.2679,-3.2709,-3.2663,-3.2834,-3.2838,-3.2842,-3.2858,-3.2865,-3.287,0,0,0,0,0,-3.2307,-3.2358,-3.2359,-3.2375,-3.2458,-3.2519,-3.253,-3.2548,-3.2533,-3.2559,-3.2584,-3.2582,-3.2697,-3.2672,-3.2687,-3.2719,-3.2833,-3.2837,-3.2841,-3.2856,-3.2863,-3.287,0,0,0,0,0,0,-3.231,-3.2365,-3.2366,-3.2435,-3.2473,-3.252,-3.2553,-3.2555,-3.2597,-3.2594,-3.2614,-3.2625,-3.2687,-3.2709,-3.268,-3.2785,-3.2763,-3.2771,-3.2769,-3.2777,-3.2782,-3.2776,-3.2668,0,0,0,0,0,-3.232,-3.2365,-3.241,-3.2466,-3.2485,-3.2516,-3.2543,-3.2554,-3.2593,-3.2609,-3.2638,-3.2675,-3.272,-3.2749,-3.2793,-3.2861,-3.2872,-3.2891,-3.2896,-3.2901,-3.2908,-3.2947,-3.2956,-3.2858,-3.2858,-3.2858,0,0,-3.2338,-3.2373,-3.2401,-3.2468,-3.2498,-3.2545,-3.2529,-3.2578,-3.2613,-3.2616,-3.2677,-3.27,-3.2743,-3.2809,-3.2839,-3.2829,-3.2937,-3.2907,-3.291,-3.2914,-3.2952,-3.2962,-3.297,-3.2861,-3.286,-3.286,0,0,-3.2396,-3.2427,-3.2479,-3.251,-3.2557,-3.2577,-3.2589,-3.2636,-3.2652,-3.2714,-3.2718,-3.2758,-3.2835,-3.2866,-3.2892,-3.2963,-3.2963,-3.2976,-3.3007,-3.3045,-3.3053,-3.306,-3.3086,-3.3096,-3.2982,-3.2982,-3.2982,0,-3.2413,-3.2485,-3.2504,-3.2555,-3.2584,-3.259,-3.2642,-3.2671,-3.2729,-3.2749,-3.2737,-3.2835,-3.2863,-3.2938,-3.2955,-3.2975,-3.299,-3.2971,-3.305,-3.3057,-3.3064,-3.309,-3.31,-3.2984,-3.2984,-3.2983,-3.2983,0,-3.2504,-3.2554,-3.2589,-3.2647,-3.2681,-3.2731,-3.2758,-3.2789,-3.2797,-3.2819,-3.2882,-3.2917,-3.2969,-3.2987,-3.2994,-3.3062,-3.3055,-3.3046,-3.3024,-3.3075,-3.3099,-3.3109,-3.2986,-3.2985,-3.2985,-3.2984,0,0,-3.2567,-3.2637,-3.265,-3.2677,-3.2729,-3.2768,-3.2818,-3.287,-3.2897,-3.2937,-3.2981,-3.3046,-3.3039,-3.3068,-3.3079,-3.3112,-3.3168,-3.31,-3.3101,-3.3112,-3.3247,-3.3254,-3.3265,-3.3168,-3.317,-3.3171,-3.3244,0,-3.2633,-3.2726,-3.2745,-3.2825,-3.2871,-3.2878,-3.2922,-3.2959,-3.298,-3.3022,-3.3045,-3.3092,-3.3078,-3.3096,-3.3129,-3.3154,-3.3195,-3.3149,-3.3209,-3.3211,-3.32,-3.3278,-3.3285,-3.3352,-3.3253,-3.3255,-3.3256,0,-3.2721,-3.2766,-3.2851,-3.2899,-3.2919,-3.2959,-3.3009,-3.3048,-3.309,-3.3103,-3.3137,-3.3144,-3.3197,-3.3172,-3.3246,-3.3214,-3.3239,-3.3255,-3.3258,-3.3266,-3.3237,-3.3289,-3.3373,-3.3384,-3.3271,-3.327,-3.3269,0,-3.2761,-3.2841,-3.2903,-3.2926,-3.2983,-3.3011,-3.3036,-3.3076,-3.3107,-3.3149,-3.3169,-3.3217,-3.3243,-3.328,-3.33,-3.328,-3.3373,-3.3349,-3.3385,-3.3385,-3.3405,-3.3404,-3.3497,-3.3419,-3.3419,-3.3419,-3.3419,0,-3.2833,-3.2885,-3.2922,-3.296,-3.3019,-3.304,-3.3098,-3.3122,-3.3158,-3.3201,-3.3208,-3.3247,-3.3271,-3.3314,-3.333,-3.3389,-3.3401,-3.3413,-3.3417,-3.3413,-3.3412,-3.3431,-3.3427,-3.3422,-3.3421,-3.3421,-3.342,0,-3.2887,-3.2914,-3.2983,-3.3032,-3.3045,-3.3086,-3.3128,-3.3165,-3.3186,-3.324,-3.3254,-3.3288,-3.3339,-3.3363,-3.3425,-3.3436,-3.3504,-3.3503,-3.349,-3.3492,-3.3528,-3.3525,-3.3637,-3.3654,-3.3564,-3.3565,-3.3565,0,-3.2932,-3.2973,-3.3027,-3.3057,-3.3083,-3.3131,-3.3162,-3.3184,-3.3217,-3.3268,-3.3299,-3.3351,-3.3394,-3.3475,-3.3504,-3.3552,-3.3554,-3.359,-3.3561,-3.3557,-3.3557,-3.3555,-3.3559,-3.3596,-3.3597,-3.3598,-3.3598,0,-3.3009,-3.3021,-3.3067,-3.3118,-3.3156,-3.3197,-3.3237,-3.3261,-3.3289,-3.3325,-3.3378,-3.3412,-3.3477,-3.3528,-3.3578,-3.3603,-3.3606,-3.3607,-3.3618,-3.3616,-3.3607,-3.3614,-3.3506,-3.3604,-3.3604,-3.3603,-3.3603,-3.3603,-3.3061,-3.3099,-3.3143,-3.3194,-3.3227,-3.3265,-3.3303,-3.333,-3.3375,-3.3431,-3.3441,-3.3498,-3.3539,-3.3607,-3.3634,-3.3678,-3.3669,-3.3685,-3.369,-3.3694,-3.3697,-3.3599,-3.3687,-3.3687,-3.3687,-3.3686,-3.3686,0,-3.314,-3.317,-3.3217,-3.3274,-3.3314,-3.3314,-3.3359,-3.3392,-3.3443,-3.3482,-3.3524,-3.3586,-3.3636,-3.367,-3.3721,-3.375,-3.3752,-3.3762,-3.3761,-3.3767,-3.37,-3.3687,-3.376,-3.376,-3.376,-3.376,-3.3759,-3.3759,-3.3186,-3.325,-3.3267,-3.3347,-3.3375,-3.3433,-3.3458,-3.3493,-3.3525,-3.3594,-3.3636,-3.3658,-3.3695,-3.3749,-3.3795,-3.3804,-3.3822,-3.3833,-3.3842,-3.3779,-3.3771,-3.3764,-3.3751,-3.3837,-3.3837,-3.3905,-3.3905,-3.3906]}]]